Weather History for Wichita, KS

Change the Weather History Date:

Saturday, April 6, 2013

  Actual Average Record
Temperature  
Mean Temperature 65 °F 53 °F  
Max Temperature 78 °F 65 °F 98 °F (1893)
Min Temperature 51 °F 41 °F 21 °F (1936)
Degree Days  
Heating Degree Days 0 12  
Month to date heating degree days 103 79  
Since 1 July heating degree days 4040 4296  
Cooling Degree Days 0 0  
Month to date cooling degree days 0 0  
Year to date cooling degree days 0 2  
Growing Degree Days 16 (Base 50)    
Moisture  
Dew Point 44 °F    
Average Humidity 53    
Maximum Humidity 77    
Minimum Humidity 29    
Precipitation  
Precipitation 0.00 in 0.08 in 1.03 in (1916)
Month to date precipitation 0.39 0.46  
Year to date precipitation 5.52 5.16  
Snow  
Snow 0.00 in 0.00 in T in (2007)
Month to date snowfall T 0.1  
Since 1 July snowfall 29.8 14.8  
Snow Depth 0.00 in    
Sea Level Pressure  
Sea Level Pressure 29.77 in    
Wind  
Wind Speed 12 mph (SW)    
Max Wind Speed 28 mph    
Max Gust Speed 37 mph    
Visibility 10 miles    
Events      
T = Trace of Precipitation, MM = Missing Value Source: NWS Daily Summary

Daily Weather History Graph

Daily Weather History Graph

Search for Another Location

Airport:

Trip Planner

Search our weather history database for the weather conditions in past years. The results will help you decide how hot, cold, wet, or windy it might be!

Date:

Astronomy

Apr. 06, 2013 Rise Set
Actual Time 7:07 AM CDT 7:57 PM CDT
Civil Twilight 6:40 AM CDT 8:24 PM CDT
Nautical Twilight 6:09 AM CDT 8:55 PM CDT
Astronomical Twilight 5:36 AM CDT 9:28 PM CDT
Moon 4:47 AM CDT (4/6) 4:31 PM CDT (4/6)
Length of Visible Light 13h 43m
Length of Day
12h 50m
Waning Crescent, 15% of the Moon is Illuminated
Apr 6
Waning Crescent
Apr 10
New
Apr 18
First Quarter
Apr 25
Full
May 2
Last Quarter

Hourly Weather History & Observations

Time (CDT) Temp. Dew Point Humidity Pressure Visibility Wind Dir Wind Speed Gust Speed Precip Events Conditions
12:53 AM 55.0 °F 45.0 °F 69% 29.80 in 10.0 mi South 21.9 mph - N/A   Partly Cloudy
1:53 AM 54.0 °F 44.1 °F 69% 29.77 in 10.0 mi South 23.0 mph 29.9 mph N/A   Mostly Cloudy
2:53 AM 54.0 °F 44.1 °F 69% 29.75 in 10.0 mi South 18.4 mph - N/A   Overcast
3:53 AM 54.0 °F 45.0 °F 72% 29.73 in 10.0 mi South 17.3 mph 23.0 mph N/A   Overcast
4:53 AM 54.0 °F 46.0 °F 75% 29.73 in 10.0 mi South 17.3 mph 26.5 mph N/A   Overcast
5:53 AM 55.0 °F 46.0 °F 72% 29.72 in 10.0 mi SSW 18.4 mph - N/A   Overcast
6:53 AM 54.0 °F 46.0 °F 75% 29.72 in 10.0 mi SSW 18.4 mph 25.3 mph N/A   Mostly Cloudy
7:53 AM 55.9 °F 46.0 °F 69% 29.73 in 10.0 mi SSW 20.7 mph 27.6 mph N/A   Mostly Cloudy
8:53 AM 55.9 °F 46.9 °F 72% 29.75 in 10.0 mi SSW 20.7 mph 26.5 mph N/A   Mostly Cloudy
9:53 AM 57.9 °F 48.0 °F 70% 29.76 in 10.0 mi SSW 18.4 mph 25.3 mph N/A   Scattered Clouds
10:53 AM 64.0 °F 48.9 °F 58% 29.76 in 10.0 mi SW 19.6 mph 24.2 mph N/A   Scattered Clouds
11:53 AM 68.0 °F 48.9 °F 50% 29.76 in 10.0 mi SW 12.7 mph 19.6 mph N/A   Scattered Clouds
12:53 PM 73.9 °F 45.0 °F 35% 29.75 in 10.0 mi WNW 12.7 mph 17.3 mph N/A   Scattered Clouds
1:53 PM 75.0 °F 43.0 °F 32% 29.75 in 10.0 mi NNW 6.9 mph 16.1 mph N/A   Scattered Clouds
2:53 PM 75.0 °F 43.0 °F 32% 29.75 in 10.0 mi NNW 11.5 mph 17.3 mph N/A   Mostly Cloudy
3:53 PM 75.9 °F 42.1 °F 30% 29.75 in 10.0 mi NW 11.5 mph - N/A   Mostly Cloudy
4:53 PM 75.0 °F 41.0 °F 29% 29.76 in 10.0 mi WNW 13.8 mph - N/A   Mostly Cloudy
5:53 PM 73.9 °F 41.0 °F 30% 29.76 in 10.0 mi WNW 11.5 mph - N/A   Mostly Cloudy
6:53 PM 72.0 °F 41.0 °F 33% 29.77 in 10.0 mi NW 6.9 mph - N/A   Mostly Cloudy
7:53 PM 70.0 °F 39.9 °F 33% 29.78 in 10.0 mi Calm Calm - N/A   Mostly Cloudy
8:53 PM 59.0 °F 43.0 °F 55% 29.81 in 10.0 mi SW 4.6 mph - N/A   Scattered Clouds
9:53 PM 62.1 °F 42.1 °F 48% 29.85 in 10.0 mi Variable 3.5 mph - N/A   Scattered Clouds
10:53 PM 63.0 °F 42.1 °F 46% 29.85 in 10.0 mi NE 5.8 mph - N/A   Scattered Clouds
11:53 PM 54.0 °F 42.1 °F 64% 29.84 in 10.0 mi SSE 3.5 mph - N/A   Scattered Clouds